Calumet, MI

3:52 AM EST on February 24, 2017 (GMT -0500)
Houghton County Memorial

Weather History for KCMX - August, 2014

Change the Weather History Date:

Friday, August 15, 2014

  Actual Average Record
Temperature  
Mean Temperature 62 °F -  
Max Temperature 77 °F 74 °F 88 °F (2015)
Min Temperature 48 °F 55 °F 39 °F (1971)
Degree Days  
Heating Degree Days 2    
Growing Degree Days 12 (Base 50)    
Moisture  
Dew Point 50 °F    
Average Humidity 60    
Maximum Humidity 71    
Minimum Humidity 45    
Precipitation  
Precipitation 0.00 in - - ()
Sea Level Pressure  
Sea Level Pressure 29.92 in    
Wind  
Wind Speed 9 mph (West)    
Max Wind Speed 17 mph    
Max Gust Speed 24 mph    
Visibility 10 miles    
Events      
Averages and records for this station are not official NWS values.
T = Trace of Precipitation, MM = Missing Value Source: NWS Daily Summary

Daily Weather History Graph

Daily Weather History Graph

Search for Another Location

Airport or City:

Trip Planner

Search our weather history database for the weather conditions in past years. The results will help you decide how hot, cold, wet, or windy it might be!

Date:

Astronomy

Aug. 15, 2014 Rise Set
Actual Time 6:50 AM EDT 9:05 PM EDT
Civil Twilight 6:17 AM EDT 9:38 PM EDT
Nautical Twilight 5:35 AM EDT 10:20 PM EDT
Astronomical Twilight 4:48 AM EDT 11:06 PM EDT
Moon 11:40 PM EDT (8/15) 12:59 PM EDT (8/15)
Length of Visible Light 15h 21m
Length of Day
14h 14m
Waning Gibbous, 69% of the Moon is Illuminated
Aug 15
Waning Gibbous
Aug 17
Last Quarter
Aug 25
New
Sep 2
First Quarter
Sep 8
Full

Hourly Weather History & Observations

Time (EDT) Temp. Dew Point Humidity Pressure Visibility Wind Dir Wind Speed Gust Speed Precip Events Conditions
12:53 AM 48.9 °F 39.9 °F 71% 30.01 in 10.0 mi NW 5.8 mph - N/A   Clear
1:53 AM 50.0 °F 37.9 °F 63% 30.01 in 10.0 mi NW 6.9 mph - N/A   Clear
2:53 AM 51.1 °F 39.0 °F 63% 30.01 in 10.0 mi WNW 9.2 mph - N/A   Clear
3:53 AM 52.0 °F 39.9 °F 63% 30.00 in 10.0 mi WNW 5.8 mph - N/A   Clear
4:53 AM 51.1 °F 37.0 °F 59% 29.99 in 10.0 mi WNW 6.9 mph - N/A   Clear
5:53 AM 50.0 °F 39.0 °F 66% 29.99 in 10.0 mi WNW 5.8 mph - N/A   Clear
6:53 AM 50.0 °F 41.0 °F 71% 29.99 in 10.0 mi WNW 6.9 mph - N/A   Clear
7:53 AM 53.1 °F 44.1 °F 71% 29.99 in 10.0 mi West 5.8 mph - N/A   Clear
8:53 AM 61.0 °F 48.0 °F 62% 29.98 in 10.0 mi West 9.2 mph - N/A   Clear
9:53 AM 64.4 °F 50.0 °F 59% 29.97 in 10.0 mi West 11.5 mph - N/A   Clear
10:53 AM 66.9 °F 53.1 °F 61% 29.97 in 10.0 mi WNW 11.5 mph - N/A   Clear
11:53 AM 70.0 °F 53.1 °F 55% 29.96 in 10.0 mi West 16.1 mph - N/A   Clear
12:53 PM 72.0 °F 53.1 °F 51% 29.94 in 10.0 mi West 16.1 mph - N/A   Clear
1:53 PM 73.9 °F 54.0 °F 50% 29.92 in 10.0 mi West 12.7 mph 21.9 mph N/A   Clear
2:53 PM 75.0 °F 55.9 °F 51% 29.91 in 10.0 mi WNW 12.7 mph - N/A   Clear
3:53 PM 77.0 °F 55.9 °F 48% 29.88 in 10.0 mi West 17.3 mph - N/A   Clear
4:53 PM 77.0 °F 54.0 °F 45% 29.87 in 10.0 mi West 15.0 mph 20.7 mph N/A   Clear
5:53 PM 75.9 °F 57.0 °F 52% 29.86 in 10.0 mi WSW 13.8 mph - N/A   Clear
6:53 PM 75.0 °F 57.0 °F 53% 29.84 in 10.0 mi West 11.5 mph - N/A   Clear
7:53 PM 73.9 °F 59.0 °F 59% 29.82 in 10.0 mi WSW 6.9 mph - N/A   Clear
8:53 PM 73.0 °F 59.0 °F 61% 29.80 in 10.0 mi WSW 9.2 mph - N/A   Mostly Cloudy
9:53 PM 72.0 °F 59.0 °F 64% 29.79 in 10.0 mi WSW 8.1 mph - N/A   Clear
10:53 PM 71.1 °F 59.0 °F 66% 29.78 in 10.0 mi WSW 8.1 mph - N/A   Clear
11:53 PM 72.0 °F 61.0 °F 68% 29.75 in 10.0 mi West 17.3 mph 24.2 mph 0.00 in   Overcast